This demonstration page uses our WeatherBlox Daily Observations layout. Learn more.

Left ArrowRight Arrow

36.17497, -115.13722

Hourly Observations for September 14, 2020

Temp ( °F °C ) Dew Point ( °F °C ) Humidity (%) Winds ( mph kmh ) Pressure ( in mb ) Visibility ( mi km ) Precip ( " mm )
12:53 am 00:53 Clear 78 25.6 27 -2.8 15 15 NNW 3 6 29.94 1014 10 16 N/A
1:53 am 01:53 Clear 77 25 24 -4.4 14 14 WNW 7 11 29.95 1014 10 16 N/A
2:53 am 02:53 Clear 75 23.9 23 -5 14 14 NW 6 9 29.95 1014 10 16 N/A
3:53 am 03:53 Clear 74 23.3 29 -1.7 19 19 NW 6 9 29.96 1015 10 16 N/A
4:53 am 04:53 Clear 74 23.3 28 -2.2 18 18 WNW 8 13 29.98 1015 10 16 N/A
5:53 am 05:53 Clear 74 23.3 26 -3.3 17 17 WNW 5 7 29.99 1016 10 16 N/A
6:53 am 06:53 Sunny 74 23.3 26 -3.3 17 17 NW 5 7 30.02 1017 10 16 N/A
7:53 am 07:53 Sunny 77 25 29 -1.7 17 17 N N/A 30.04 1017 10 16 N/A
8:53 am 08:53 Sunny 85 29.4 29 -1.7 13 13 WNW 5 7 30.05 1018 10 16 N/A
9:53 am 09:53 Sunny 90 32.2 27 -2.8 10 10 N N/A 30.05 1018 10 16 N/A
10:53 am 10:53 Sunny 93 33.9 27 -2.8 9 9 N N/A 30.05 1018 10 16 N/A
11:53 am 11:53 Sunny 96 35.6 31 -0.6 10 10 VRB 5 7 30.02 1017 10 16 N/A
12:53 pm 12:53 Sunny 97 36.1 37 2.8 12 12 ESE 6 9 30.01 1016 10 16 N/A
1:53 pm 13:53 Sunny 100 37.8 39 3.9 12 12 SSW 10 17 29.98 1015 10 16 N/A
2:53 pm 14:53 Sunny 99 37.2 36 2.2 11 11 S 7 11 29.96 1015 10 16 N/A
3:53 pm 15:53 Sunny 100 37.8 36 2.2 11 11 VRB 5 7 29.94 1014 10 16 N/A
4:53 pm 16:53 Sunny 100 37.8 35 1.7 10 10 SE 9 15 29.93 1014 10 16 N/A
5:53 pm 17:53 Sunny 99 37.2 34 1.1 10 10 E 8 13 29.92 1013 10 16 N/A
6:53 pm 18:53 Clear 96 35.6 34 1.1 11 11 ESE 3 6 29.93 1014 10 16 N/A
7:53 pm 19:53 Clear 93 33.9 34 1.1 12 12 E 5 7 29.95 1014 10 16 N/A
8:53 pm 20:53 Clear 90 32.2 38 3.3 16 16 WNW 7 11 29.96 1015 10 16 N/A
9:53 pm 21:53 Clear 87 30.6 41 5 20 20 W 7 11 29.97 1015 10 16 N/A
10:53 pm 22:53 Clear 85 29.4 41 5 21 21 WNW 7 11 29.97 1015 10 16 N/A
11:53 pm 23:53 Clear 82 27.8 40 4.4 22 22 N N/A 29.98 1015 10 16 N/A

Powered by AerisWeather